Date_and_time,latitude,longitude,wind_speed,RelWindDirFrom,WindDirFrom,air_pressure,air_temperature,relative_humidity,Temp,platform_speed_wrt_ground,air_pressure_at_mean_sea_level,platform_orientation
2019-09-04 23:50,50.6304516666667,-96.9807833333333,0.9,2.8,251,986.60,23.6,36,17.21,0.0,1012.21,211.1
2019-09-05 00:00,50.630425,-96.9807766666667,1.6,2.4,333,986.45,23.6,36,17.12,0.0,1012.05,193.3
2019-09-05 00:10,50.6304416666667,-96.9807883333333,5.3,8.9,26,986.34,21.7,56,17.03,0.0,1012.03,193.3
2019-09-05 00:20,50.6304433333333,-96.9807866666667,7.9,9.2,37,986.33,19.4,68,17.05,0.0,1012.10,193.3
2019-09-05 00:30,50.6304583333333,-96.9808,5.3,7.3,19,986.69,18.8,76,17.05,0.0,1012.48,193.3
2019-09-05 00:40,50.630455,-96.9808016666667,4.0,4.9,35,986.88,18.3,83,17.06,0.0,1012.69,193.3
2019-09-05 00:50,50.630435,-96.9807716666667,4.1,5.2,84,987.10,18.3,88,16.99,0.0,1012.93,193.3
2019-09-05 01:00,50.6304466666667,-96.9807783333333,3.2,4.0,92,987.28,18.3,90,16.89,0.0,1013.11,131.7
2019-09-05 01:10,50.6304466666667,-96.9807816666667,3.9,5.3,87,987.27,18.4,86,16.80,0.0,1013.09,131.7
2019-09-05 01:20,50.6304466666667,-96.9807833333333,3.5,4.3,99,987.23,18.6,80,16.72,0.0,1013.07,131.7
2019-09-05 01:30,50.6304266666667,-96.9807716666667,4.0,6.0,87,987.09,18.7,76,16.67,0.0,1012.92,131.7
2019-09-05 01:40,50.6304416666667,-96.9807816666667,5.8,7.4,63,986.94,18.8,73,16.61,0.0,1012.75,131.7
2019-09-05 01:50,50.63044,-96.980775,5.6,8.7,62,987.07,19.0,70,16.59,0.0,1012.87,131.7
2019-09-05 02:00,50.63044,-96.9807716666667,7.0,8.3,78,987.00,18.9,72,16.59,0.0,1012.89,90.0
2019-09-05 02:10,50.63044,-96.98077,5.6,8.0,75,987.27,18.8,73,16.60,0.0,1013.27,90.0
2019-09-05 02:20,50.6304516666667,-96.98078,2.1,4.2,56,987.48,18.6,76,16.59,0.0,1013.53,90.0
2019-09-05 02:30,50.6304566666667,-96.9807733333333,3.7,8.1,34,987.52,18.6,73,16.60,0.0,1013.59,90.0
2019-09-05 02:40,50.630455,-96.98078,8.1,9.4,15,987.44,17.7,95,16.63,0.0,1013.55,90.0
2019-09-05 02:50,50.6304583333333,-96.98078,9.9,12.5,14,987.41,17.3,99,16.65,0.0,1013.54,90.0
2019-09-05 03:00,50.6304566666667,-96.9807783333333,9.1,11.0,4,987.72,17.2,99,16.67,0.0,1013.85,327.5
2019-09-05 03:10,50.6304566666667,-96.9807783333333,9.1,11.0,357,987.79,17.2,98,16.75,0.0,1013.92,327.5
2019-09-05 03:20,50.6304566666667,-96.9807766666667,9.5,12.0,10,987.55,17.2,97,16.83,0.0,1013.66,327.5
2019-09-05 03:30,50.6304566666667,-96.980775,6.2,8.9,3,987.63,17.1,98,16.78,0.0,1013.75,327.5
2019-09-05 03:40,50.6304566666667,-96.980775,7.5,11.6,27,987.22,17.2,98,16.77,0.0,1013.32,327.5
2019-09-05 03:50,50.6304566666667,-96.980775,7.5,10.9,39,986.90,17.3,95,16.82,0.0,1012.98,327.5
2019-09-05 04:00,50.6304566666667,-96.980775,7.9,10.5,30,986.92,17.3,96,16.82,0.0,1013.01,60.8
2019-09-05 04:10,50.6304366666667,-96.9807683333333,5.8,8.4,16,987.05,17.2,98,16.79,0.0,1013.15,60.8
2019-09-05 04:20,50.6304816666667,-96.98078,2.4,4.2,323,987.39,17.2,95,16.80,0.0,1013.51,60.8
2019-09-05 04:30,50.63046,-96.9807816666667,1.9,4.0,322,987.49,17.1,96,16.86,0.0,1013.65,60.8
2019-09-05 04:40,50.6304566666667,-96.9807816666667,3.2,4.6,324,987.66,16.9,98,16.90,0.0,1013.86,60.8
2019-09-05 04:50,50.6304566666667,-96.9807833333333,2.1,4.2,329,987.70,16.8,99,16.86,0.0,1013.91,60.8
2019-09-05 05:00,50.6304566666667,-96.980785,0.5,1.6,334,987.70,16.7,99,16.79,0.0,1013.91,311.7
2019-09-05 05:10,50.6304566666667,-96.9807833333333,2.1,3.4,166,987.46,16.4,99,16.76,0.0,1013.68,311.7
2019-09-05 05:20,50.6304516666667,-96.9807866666667,2.6,3.8,126,987.23,17.0,96,16.74,0.0,1013.42,311.7
2019-09-05 05:30,50.6304533333333,-96.980775,1.8,3.0,121,987.14,17.0,95,16.76,0.0,1013.32,311.7
2019-09-05 05:40,50.6304516666667,-96.9807816666667,3.3,4.7,150,986.98,16.9,83,16.79,0.0,1013.16,311.7
2019-09-05 05:50,50.6304566666667,-96.9807866666667,3.5,4.7,155,986.81,17.0,82,16.81,0.0,1012.98,311.7
2019-09-05 06:00,50.6304566666667,-96.98078,1.9,3.6,124,986.71,17.2,86,16.83,0.0,1012.87,0.0
2019-09-05 06:10,50.6304466666667,-96.9807716666667,1.5,2.6,111,986.81,17.2,90,16.85,0.0,1012.98,0.0
2019-09-05 06:20,50.6304533333333,-96.9807733333333,2.4,3.4,113,986.67,17.2,94,16.86,0.0,1012.83,0.0
2019-09-05 06:30,50.6304733333333,-96.9807783333333,3.6,4.5,99,986.55,17.2,94,16.86,0.0,1012.73,0.0
2019-09-05 06:40,50.6304633333333,-96.9807733333333,3.7,4.7,106,986.55,17.2,93,16.87,0.0,1012.73,0.0
2019-09-05 06:50,50.630455,-96.9807816666667,2.4,3.4,134,986.79,17.0,92,16.87,0.0,1012.99,0.0
2019-09-05 07:00,50.6304566666667,-96.9807816666667,2.7,3.4,165,986.95,16.6,92,16.87,0.0,1013.18,270.0
2019-09-05 07:10,50.6304566666667,-96.98078,1.4,2.2,186,987.11,16.6,95,16.86,0.0,1013.32,270.0
2019-09-05 07:20,50.6304566666667,-96.98078,2.9,4.4,221,987.46,16.4,96,16.83,0.0,1013.69,270.0
2019-09-05 07:30,50.6304783333333,-96.980765,3.2,4.0,206,987.56,16.1,97,16.82,0.0,1013.81,270.0
2019-09-05 07:40,50.6304666666667,-96.98077,2.7,3.6,188,987.47,15.9,99,16.83,0.0,1013.72,270.0
2019-09-05 07:50,50.6304533333333,-96.9807816666667,3.3,4.1,147,987.21,15.8,99,16.85,0.0,1013.45,270.0
2019-09-05 08:00,50.6304533333333,-96.98078,3.1,4.2,130,986.92,16.3,98,16.87,0.0,1013.13,0.0
2019-09-05 08:10,50.630455,-96.9807866666667,3.4,4.1,109,986.65,16.5,99,16.87,0.0,1012.85,0.0
2019-09-05 08:20,50.6304533333333,-96.980785,3.5,4.2,99,986.56,16.4,99,16.86,0.0,1012.76,0.0
2019-09-05 08:30,50.6304566666667,-96.980785,2.4,3.3,81,986.63,16.4,99,16.87,0.0,1012.83,0.0
2019-09-05 08:40,50.6304566666667,-96.9807816666667,3.2,5.0,147,986.81,16.0,96,16.89,0.0,1013.04,0.0
2019-09-05 08:50,50.6304566666667,-96.98078,5.1,6.0,132,986.78,16.1,98,16.90,0.0,1013.03,0.0
2019-09-05 09:00,50.6304566666667,-96.9807783333333,6.5,7.9,98,986.60,16.3,100,16.91,0.0,1012.83,0.0
2019-09-05 09:10,50.630455,-96.9807766666667,6.4,8.3,88,986.41,16.2,100,16.90,0.0,1012.65,0.0
2019-09-05 09:20,50.630455,-96.9807766666667,6.5,7.7,94,986.44,16.2,100,16.90,0.0,1012.69,0.0
2019-09-05 09:30,50.6304566666667,-96.9807766666667,5.8,7.3,105,986.60,16.2,99,16.90,0.0,1012.86,0.0
2019-09-05 09:40,50.6304566666667,-96.9807766666667,5.8,6.9,113,986.60,16.3,99,16.89,0.0,1012.87,0.0
2019-09-05 09:50,50.6304566666667,-96.9807766666667,7.5,9.7,100,986.37,16.3,100,16.86,0.0,1012.61,0.0
2019-09-05 10:00,50.6304516666667,-96.9807816666667,8.6,10.4,98,986.32,16.3,99,16.84,0.0,1012.55,90.0
2019-09-05 10:10,50.6304533333333,-96.9807766666667,8.3,9.4,104,986.45,16.3,99,16.84,0.0,1012.68,90.0
2019-09-05 10:20,50.6304516666667,-96.9807733333333,8.3,9.8,96,986.35,16.3,99,16.84,0.0,1012.58,90.0
2019-09-05 10:30,50.6304533333333,-96.9807716666667,9.0,11.2,81,986.06,16.1,99,16.82,0.0,1012.31,90.0
2019-09-05 10:40,50.6304533333333,-96.9807716666667,8.6,10.7,84,986.06,16.1,99,16.82,0.0,1012.30,90.0
2019-09-05 10:50,50.6304516666667,-96.9807716666667,7.9,10.2,84,986.22,16.2,99,16.82,0.0,1012.45,90.0
2019-09-05 11:00,50.6304516666667,-96.9807733333333,8.3,10.7,83,986.26,16.2,99,16.82,0.0,1012.51,90.0
2019-09-05 11:10,50.6304516666667,-96.980775,10.2,12.1,78,986.14,16.2,99,16.79,0.0,1012.38,90.0
2019-09-05 11:20,50.6304533333333,-96.9807766666667,10.6,12.0,76,986.10,16.2,99,16.79,0.0,1012.34,90.0
2019-09-05 11:30,50.6304533333333,-96.9807783333333,10.4,12.0,74,986.14,16.2,99,16.77,0.0,1012.38,90.0
2019-09-05 11:40,50.6304533333333,-96.9807783333333,9.5,11.5,75,986.37,16.2,99,16.80,0.0,1012.61,90.0
2019-09-05 11:50,50.6304533333333,-96.98078,8.5,9.8,76,986.44,16.3,99,16.80,0.0,1012.68,90.0
2019-09-05 12:00,50.630455,-96.98078,7.8,9.3,80,986.49,16.3,99,16.77,0.0,1012.73,0.0
2019-09-05 12:10,50.630455,-96.98078,8.1,9.2,78,986.55,16.3,99,16.74,0.0,1012.79,0.0
2019-09-05 12:20,50.630455,-96.98078,8.3,9.4,71,986.65,16.3,99,16.74,0.0,1012.90,0.0
2019-09-05 12:30,50.630455,-96.98078,9.0,10.2,69,986.71,16.3,99,16.75,0.0,1012.96,0.0
2019-09-05 12:40,50.63046,-96.9807483333333,8.8,10.1,68,986.81,16.2,99,16.74,0.0,1013.07,0.0
2019-09-05 12:50,50.630455,-96.98079,9.5,11.0,68,986.90,16.2,99,16.74,0.0,1013.16,0.0
2019-09-05 13:00,50.6304433333333,-96.98078,10.0,11.2,67,986.89,16.2,98,16.73,0.0,1013.15,360.0
2019-09-05 13:10,50.6304516666667,-96.9807683333333,9.7,10.9,58,986.84,16.2,99,16.73,0.0,1013.10,360.0
2019-09-05 13:20,50.6304583333333,-96.9807766666667,9.6,11.1,51,986.97,16.1,99,16.72,0.0,1013.23,360.0
2019-09-05 13:30,50.63044,-96.980755,8.8,10.4,49,987.14,16.1,99,16.71,0.0,1013.41,360.0
2019-09-05 13:40,50.630455,-96.980785,9.5,11.1,55,987.08,16.1,99,16.70,0.0,1013.34,360.0
2019-09-05 13:50,50.6304583333333,-96.9807833333333,9.0,10.5,62,987.23,16.2,99,16.70,0.0,1013.49,360.0
2019-09-05 14:00,50.6304566666667,-96.9807783333333,8.3,9.6,58,987.30,16.2,99,16.71,0.0,1013.57,270.0
2019-09-05 14:10,50.6304666666667,-96.9807766666667,7.6,8.7,51,987.35,16.2,99,16.72,0.0,1013.62,270.0
2019-09-05 14:20,50.6304616666667,-96.9807783333333,7.3,9.0,49,987.41,16.2,99,16.72,0.0,1013.68,270.0
2019-09-05 14:30,50.6304633333333,-96.9807833333333,6.9,8.0,43,987.42,16.2,99,16.73,0.0,1013.70,270.0
2019-09-05 14:40,50.6304633333333,-96.9807833333333,7.3,8.2,37,987.40,16.2,99,16.73,0.0,1013.67,270.0
2019-09-05 14:50,50.6304683333333,-96.9807883333333,7.6,8.5,28,987.48,16.3,99,16.75,0.0,1013.76,270.0
2019-09-05 15:00,50.6304516666667,-96.9807716666667,7.7,8.5,35,987.51,16.4,97,16.76,0.0,1013.78,90.0
2019-09-05 15:10,50.6304516666667,-96.9807766666667,7.6,8.9,40,987.52,16.5,96,16.79,0.0,1013.79,90.0
2019-09-05 15:20,50.6304516666667,-96.9807783333333,7.1,8.1,40,987.61,16.6,96,16.80,0.0,1013.88,90.0
2019-09-05 15:30,50.630435,-96.9807616666667,7.6,8.6,39,987.63,16.7,93,16.81,0.0,1013.89,90.0
2019-09-05 15:40,50.6304533333333,-96.9807816666667,7.4,8.5,30,987.71,16.6,95,16.81,0.0,1013.97,90.0
2019-09-05 15:50,50.630455,-96.9807916666667,7.7,8.8,15,987.81,16.5,95,16.81,0.0,1014.08,90.0
2019-09-05 16:00,50.63045,-96.9807916666667,7.2,8.4,17,987.86,16.6,95,16.82,0.0,1014.13,360.0
2019-09-05 16:10,50.6304516666667,-96.9807916666667,7.8,8.9,15,987.88,16.7,94,16.92,0.0,1014.14,360.0
2019-09-05 16:20,50.630455,-96.9807716666667,8.1,9.7,13,987.97,16.8,93,16.94,0.0,1014.23,360.0
2019-09-05 16:30,50.6304516666667,-96.9807766666667,8.5,10.2,18,987.90,16.9,93,16.90,0.0,1014.15,360.0
2019-09-05 16:40,50.6304183333333,-96.9807683333333,9.8,11.0,9,987.87,17.0,95,16.88,0.0,1014.12,360.0
2019-09-05 16:50,50.6304433333333,-96.98078,10.6,12.3,4,987.94,17.0,95,16.95,0.0,1014.18,360.0
2019-09-05 17:00,50.6304483333333,-96.980785,11.2,12.8,5,987.97,16.9,97,17.04,0.0,1014.22,142.0
2019-09-05 17:10,50.6304516666667,-96.98078,11.3,13.2,5,988.03,16.7,99,17.07,0.0,1014.28,142.0
2019-09-05 17:20,50.630455,-96.9807833333333,11.2,12.5,5,988.14,16.5,99,17.05,0.0,1014.39,142.0
2019-09-05 17:30,50.6304533333333,-96.9807766666667,11.3,12.6,4,988.15,16.5,99,17.02,0.0,1014.41,142.0
2019-09-05 17:40,50.6304716666667,-96.9808233333333,10.7,13.4,5,988.20,16.6,99,17.04,0.0,1014.46,142.0
2019-09-05 17:50,50.6304566666667,-96.98078,10.7,13.6,4,988.36,16.8,99,17.04,0.0,1014.61,142.0
2019-09-05 18:00,50.630445,-96.9808083333333,11.3,13.5,357,988.42,16.6,99,16.95,0.0,1014.68,246.4
2019-09-05 18:10,50.63044,-96.9807866666667,10.7,13.1,2,988.45,16.5,99,17.00,0.0,1014.71,246.4
2019-09-05 18:20,50.63042,-96.9807933333333,10.4,12.7,1,988.52,16.6,99,17.12,0.0,1014.78,246.4
2019-09-05 18:30,50.6304433333333,-96.980775,10.2,12.3,3,988.68,16.7,99,17.12,0.0,1014.93,246.4
2019-09-05 18:40,50.6304466666667,-96.980765,11.4,13.8,3,988.75,16.7,99,17.03,0.0,1015.01,246.4
2019-09-05 18:50,50.63045,-96.980775,13.2,14.8,6,988.73,16.6,99,17.05,0.0,1014.98,246.4
2019-09-05 19:00,50.6304483333333,-96.9807833333333,12.6,14.1,5,988.73,16.6,99,17.10,0.0,1014.99,167.4
2019-09-05 19:10,50.6304466666667,-96.98079,12.2,14.1,6,988.84,16.7,99,17.11,0.0,1015.11,167.4
2019-09-05 19:20,50.6304483333333,-96.9807866666667,12.7,14.6,8,988.82,16.7,100,17.06,0.0,1015.10,167.4
2019-09-05 19:30,50.6304483333333,-96.9807866666667,12.1,14.4,11,988.80,16.7,100,17.03,0.0,1015.07,167.4
2019-09-05 19:40,50.6304483333333,-96.9807866666667,12.7,14.5,10,988.82,16.5,100,17.08,0.0,1015.08,167.4
2019-09-05 19:50,50.6304483333333,-96.980785,12.0,13.6,6,988.87,16.5,100,17.12,0.0,1015.15,167.4
2019-09-05 20:00,50.6304566666667,-96.9807766666667,12.0,13.9,7,988.83,16.5,100,17.11,0.0,1015.12,60.8
2019-09-05 20:10,50.6304516666667,-96.9807833333333,11.2,12.8,5,988.93,16.5,100,17.09,0.0,1015.22,60.8
2019-09-05 20:20,50.6304533333333,-96.9807833333333,10.9,12.3,12,988.91,16.5,100,17.08,0.0,1015.19,60.8
2019-09-05 20:30,50.6304516666667,-96.9807766666667,10.5,12.0,12,988.95,16.5,100,17.12,0.0,1015.23,60.8
2019-09-05 20:40,50.63045,-96.9807766666667,10.4,11.8,13,988.98,16.5,100,17.12,0.0,1015.25,60.8
2019-09-05 20:50,50.63045,-96.980775,10.8,12.8,13,988.98,16.6,100,17.09,0.0,1015.26,60.8
2019-09-05 21:00,50.6304483333333,-96.980775,12.5,13.8,13,989.01,16.5,100,17.08,0.0,1015.29,78.2
2019-09-05 21:10,50.63045,-96.98078,12.6,15.0,12,989.09,16.4,100,17.08,0.0,1015.38,78.2
2019-09-05 21:20,50.63045,-96.9807766666667,12.7,14.5,11,989.12,16.4,100,17.09,0.0,1015.41,78.2
2019-09-05 21:30,50.630455,-96.980785,13.5,15.5,15,989.04,16.3,100,17.10,0.0,1015.34,78.2
2019-09-05 21:40,50.6304366666667,-96.9807666666667,13.4,15.6,14,989.10,16.3,100,17.11,0.0,1015.40,78.2
2019-09-05 21:50,50.6304416666667,-96.9807833333333,13.0,15.1,11,989.20,16.3,100,17.12,0.0,1015.50,78.2
2019-09-05 22:00,50.6304433333333,-96.98078,12.7,14.3,7,989.31,16.4,100,17.14,0.0,1015.61,360.0
2019-09-05 22:10,50.630445,-96.98078,12.4,13.9,11,989.30,16.4,100,17.16,0.0,1015.61,360.0
2019-09-05 22:20,50.6304466666667,-96.98078,11.1,12.6,12,989.40,16.5,100,17.16,0.0,1015.70,360.0
2019-09-05 22:30,50.63045,-96.9808166666667,11.2,12.9,17,989.37,16.6,100,17.16,0.0,1015.66,360.0
2019-09-05 22:40,50.630445,-96.9807866666667,10.6,12.2,21,989.39,16.6,100,17.16,0.0,1015.68,360.0
2019-09-05 22:50,50.6304466666667,-96.98078,10.8,12.0,15,989.55,16.7,100,17.16,0.0,1015.85,360.0
2019-09-05 23:00,50.6304566666667,-96.9807766666667,11.1,12.6,14,989.62,16.7,100,17.17,0.0,1015.92,0.0
2019-09-05 23:10,50.630455,-96.9807666666667,10.6,12.3,10,989.76,16.5,100,17.19,0.0,1016.07,0.0
2019-09-05 23:20,50.6304733333333,-96.980755,10.9,12.4,10,989.86,16.5,100,17.22,0.0,1016.18,0.0
2019-09-05 23:30,50.630455,-96.98079,10.0,12.0,10,989.95,16.4,100,17.24,0.0,1016.27,0.0
